TimeEDT,TemperatureF,Dew PointF,Humidity,Sea Level PressureIn,VisibilityMPH,Wind Direction,Wind SpeedMPH,Gust SpeedMPH,PrecipitationIn,Events,Conditions,WindDirDegrees,DateUTC
12:53 AM,73.9,72.0,93,30.04,10.0,South,5.8,-,N/A,,Clear,170,2012-09-20 04:53:00
1:53 AM,73.0,70.0,90,30.01,10.0,SW,3.5,-,N/A,,Clear,230,2012-09-20 05:53:00
2:53 AM,72.0,70.0,93,30.00,10.0,WSW,3.5,-,N/A,,Clear,240,2012-09-20 06:53:00
3:53 AM,72.0,69.1,91,29.99,10.0,West,5.8,-,N/A,,Clear,260,2012-09-20 07:53:00
4:53 AM,71.1,70.0,96,30.00,10.0,West,3.5,-,N/A,,Clear,280,2012-09-20 08:53:00
5:53 AM,72.0,70.0,93,30.00,10.0,Calm,Calm,-,N/A,,Clear,0,2012-09-20 09:53:00
6:53 AM,72.0,70.0,93,30.01,10.0,Calm,Calm,-,N/A,,Clear,0,2012-09-20 10:53:00
7:53 AM,73.0,71.1,93,30.03,10.0,Calm,Calm,-,N/A,,Clear,0,2012-09-20 11:53:00
8:53 AM,78.8,71.6,78,30.03,10.0,Calm,Calm,-,N/A,,Clear,0,2012-09-20 12:53:00
9:53 AM,84.0,72.0,67,30.04,10.0,North,4.6,-,N/A,,Clear,350,2012-09-20 13:53:00
10:53 AM,84.9,73.0,67,30.04,10.0,ENE,4.6,-,N/A,,Clear,60,2012-09-20 14:53:00
11:53 AM,84.9,73.0,67,30.04,10.0,North,5.8,-,N/A,,Scattered Clouds,10,2012-09-20 15:53:00
12:53 PM,86.0,73.9,67,30.03,10.0,NE,6.9,-,N/A,,Scattered Clouds,50,2012-09-20 16:53:00
1:53 PM,86.0,73.9,67,30.01,10.0,East,6.9,-,N/A,,Clear,90,2012-09-20 17:53:00
2:53 PM,84.9,73.0,67,29.99,10.0,East,8.1,-,N/A,,Partly Cloudy,80,2012-09-20 18:53:00
3:53 PM,84.0,73.9,72,29.97,10.0,East,8.1,-,N/A,,Scattered Clouds,80,2012-09-20 19:53:00
4:53 PM,82.0,73.9,76,29.95,10.0,East,6.9,-,N/A,,Partly Cloudy,90,2012-09-20 20:53:00
5:53 PM,82.0,75.0,79,29.97,10.0,Calm,Calm,-,0.00,,Scattered Clouds,0,2012-09-20 21:53:00
6:53 PM,81.0,75.0,82,29.98,10.0,Calm,Calm,-,N/A,,Partly Cloudy,0,2012-09-20 22:53:00
7:53 PM,80.1,75.9,87,30.01,10.0,Calm,Calm,-,0.00,Rain,Light Rain,0,2012-09-20 23:53:00
8:53 PM,79.0,75.9,90,30.01,10.0,West,3.5,-,0.01,,Clear,260,2012-09-21 00:53:00
9:53 PM,77.0,73.9,90,30.01,10.0,Calm,Calm,-,N/A,,Partly Cloudy,0,2012-09-21 01:53:00
10:53 PM,75.9,73.9,94,30.03,10.0,Calm,Calm,-,N/A,,Clear,0,2012-09-21 02:53:00
11:53 PM,75.9,73.9,94,30.01,10.0,Calm,Calm,-,N/A,,Clear,0,2012-09-21 03:53:00